Date String (YYYY-MM-DD hh:mm:ss) UTC,Instrument flags,absolute air pressure of the measurement (hPa),sample flow rate (lpm),inlet stack bypass flow (lpm),air temperature of the measurement (°C),ambient temperature measured by the external sensor (°C),aerosol sample conditioner tube jacket temperature (°C),OPC LED temperature (°C),internal box temperature (°C),relative humidity of the measurement (%),span deviation,mass concentration of particles derived from Lorenz-Mie calculation of OPC scattering (μg/m³),mass concentration of particles derived from Lorenz-Mie calculation of OPC scattering (μg/m³),mass concentration of particles derived from Lorenz-Mie calculation of OPC scattering (μg/m³)
DateTimeUTC,F1_M11,P_M11,Q1_M11,Q2_M11,T1_M11,T2_M11,T3_M11,T4_M11,T5_M11,U1_M11,ZSPAN_M11,X0_M11,X2_M11,X1_M11
2023-12-31 16:00:00,SystemResetWarning,0830.7,5.00,000.00,020.3,019.5,000.0,028.7,021.6,14.1,0000.0,0008.74,0004.43,0003.85
2023-12-31 16:01:00,SystemResetWarning,0830.7,5.00,000.00,020.3,019.5,000.0,028.7,021.6,14.2,0000.0,0008.78,0004.41,0003.84
2023-12-31 16:02:00,SystemResetWarning,0830.7,4.99,000.00,020.3,019.5,000.0,028.7,021.6,14.3,0000.0,0008.82,0004.39,0003.83
2023-12-31 16:03:00,SystemResetWarning,0830.7,4.99,000.00,020.3,019.5,000.0,028.7,021.6,14.3,0000.0,0009.12,0004.41,0003.84
2023-12-31 16:04:00,SystemResetWarning,0830.7,5.01,000.00,020.3,019.5,000.0,028.7,021.6,14.2,0000.0,0009.43,0004.38,0003.85
2023-12-31 16:05:00,SystemResetWarning,0830.7,5.00,000.00,020.3,019.5,000.0,028.7,021.6,14.2,0000.0,0009.56,0004.39,0003.86
2023-12-31 16:06:00,SystemResetWarning,0830.7,5.00,000.00,020.3,019.5,000.0,028.7,021.6,14.3,0000.0,0009.94,0004.37,0003.86
2023-12-31 16:07:00,SystemResetWarning,0830.8,5.01,000.00,020.3,019.5,000.0,028.7,021.6,14.4,0000.0,0010.07,0004.41,0003.86
2023-12-31 16:08:00,SystemResetWarning,0830.8,5.00,000.00,020.3,019.5,000.0,028.7,021.6,14.6,0000.0,0010.41,0004.40,0003.85
2023-12-31 16:09:00,SystemResetWarning,0830.8,5.00,000.00,020.3,019.5,000.0,028.6,021.6,14.6,0000.0,0011.00,0004.41,0003.85
2023-12-31 16:10:00,SystemResetWarning,0830.8,5.00,000.00,020.3,019.5,000.0,028.6,021.6,14.7,0000.0,0010.90,0004.40,0003.85
2023-12-31 16:11:00,SystemResetWarning,0830.8,5.00,000.00,020.3,019.5,000.0,028.6,021.6,14.7,0000.0,0010.81,0004.40,0003.84
2023-12-31 16:12:00,SystemResetWarning,0830.8,4.99,000.00,020.3,019.6,000.0,028.6,021.6,14.5,0000.0,0011.11,0004.44,0003.83
2023-12-31 16:13:00,SystemResetWarning,0830.8,5.00,000.00,020.3,019.6,000.0,028.6,021.6,14.6,0000.0,0011.32,0004.46,0003.81
2023-12-31 16:14:00,SystemResetWarning,0830.8,5.00,000.00,020.3,019.6,000.0,028.6,021.6,14.9,0000.0,0011.17,0004.43,0003.79
2023-12-31 16:15:00,SystemResetWarning,0830.9,4.99,000.00,020.3,019.6,000.0,028.6,021.7,14.9,0000.0,0011.36,0004.45,0003.80
2023-12-31 16:16:00,SystemResetWarning,0830.8,5.00,000.00,020.3,019.6,000.0,028.6,021.7,15.0,0000.0,0010.79,0004.47,0003.79
2023-12-31 16:17:00,SystemResetWarning,0830.9,5.00,000.00,020.3,019.6,000.0,028.6,021.7,14.8,0000.0,0010.42,0004.46,0003.78
2023-12-31 16:18:00,SystemResetWarning,0830.9,5.00,000.00,020.3,019.6,000.0,028.6,021.7,15.0,0000.0,0010.12,0004.40,0003.78
2023-12-31 16:19:00,SystemResetWarning,0830.9,5.00,000.00,020.3,019.6,000.0,028.6,021.6,15.0,0000.0,0009.80,0004.38,0003.78
2023-12-31 16:20:00,SystemResetWarning,0830.9,5.01,000.00,020.3,019.6,000.0,028.6,021.6,14.8,0000.0,0009.09,0004.35,0003.77
2023-12-31 16:21:00,SystemResetWarning,0830.9,5.01,000.00,020.3,019.7,000.0,028.7,021.7,15.0,0000.0,0009.06,0004.35,0003.76
2023-12-31 16:22:00,SystemResetWarning,0830.9,5.01,000.00,020.3,019.7,000.0,028.7,021.7,15.2,0000.0,0009.03,0004.34,0003.76
2023-12-31 16:23:00,SystemResetWarning,0830.9,4.99,000.00,020.3,019.7,000.0,028.7,021.7,15.2,0000.0,0008.93,0004.33,0003.76
2023-12-31 16:24:00,SystemResetWarning,0830.9,4.99,000.00,020.3,019.7,000.0,028.6,021.7,15.2,0000.0,0009.79,0004.28,0003.76
2023-12-31 16:25:00,SystemResetWarning,0830.9,5.00,000.00,020.3,019.7,000.0,028.6,021.7,15.1,0000.0,0009.76,0004.26,0003.76
2023-12-31 16:26:00,SystemResetWarning,0830.9,5.01,000.00,020.3,019.7,000.0,028.7,021.7,14.9,0000.0,0009.13,0004.27,0003.76
2023-12-31 16:27:00,SystemResetWarning,0830.9,5.01,000.00,020.3,019.7,000.0,028.7,021.7,14.9,0000.0,0009.08,0004.27,0003.78
2023-12-31 16:28:00,SystemResetWarning,0830.9,5.00,000.00,020.3,019.7,000.0,028.7,021.7,14.8,0000.0,0009.08,0004.32,0003.81
2023-12-31 16:29:00,SystemResetWarning,0831.0,5.00,000.00,020.3,019.7,000.0,028.7,021.7,14.7,0000.0,0009.33,0004.40,0003.84
2023-12-31 16:30:00,SystemResetWarning,0830.9,4.99,000.00,020.4,019.7,000.0,028.7,021.7,14.7,0000.0,0009.58,0004.43,0003.86
2023-12-31 16:31:00,SystemResetWarning,0831.0,4.99,000.00,020.4,019.7,000.0,028.7,021.7,14.8,0000.0,0009.65,0004.48,0003.88
2023-12-31 16:32:00,SystemResetWarning,0831.1,4.99,000.00,020.4,019.7,000.0,028.7,021.8,15.1,0000.0,0009.77,0004.55,0003.91
2023-12-31 16:33:00,SystemResetWarning,0831.1,5.00,000.00,020.4,019.7,000.0,028.7,021.8,15.1,0000.0,0009.90,0004.59,0003.92
2023-12-31 16:34:00,SystemResetWarning,0831.1,5.00,000.00,020.4,019.7,000.0,028.7,021.8,15.1,0000.0,0009.92,0004.62,0003.94
2023-12-31 16:35:00,SystemResetWarning,0831.1,5.00,000.00,020.4,019.7,000.0,028.7,021.8,15.2,0000.0,0008.78,0004.65,0003.96
2023-12-31 16:36:00,SystemResetWarning,0831.1,5.00,000.00,020.4,019.8,000.0,028.7,021.8,15.2,0000.0,0008.50,0004.66,0003.98
2023-12-31 16:37:00,SystemResetWarning,0831.1,5.00,000.00,020.4,019.8,000.0,028.7,021.8,14.9,0000.0,0008.49,0004.64,0003.99
2023-12-31 16:38:00,SystemResetWarning,0831.1,5.01,000.00,020.4,019.8,000.0,028.7,021.8,15.0,0000.0,0008.99,0004.70,0003.99
2023-12-31 16:39:00,SystemResetWarning,0831.1,5.00,000.00,020.4,019.8,000.0,028.7,021.8,14.9,0000.0,0009.60,0004.67,0003.98
2023-12-31 16:40:00,SystemResetWarning,0831.2,5.00,000.00,020.4,019.8,000.0,028.7,021.8,14.9,0000.0,0009.46,0004.62,0003.97
2023-12-31 16:41:00,SystemResetWarning,0831.1,5.00,000.00,020.5,019.8,000.0,028.7,021.8,14.9,0000.0,0009.34,0004.63,0003.96
2023-12-31 16:42:00,SystemResetWarning,0831.1,5.01,000.00,020.5,019.8,000.0,028.7,021.8,14.7,0000.0,0009.70,0004.62,0003.97
2023-12-31 16:43:00,SystemResetWarning,0831.1,5.00,000.00,020.5,019.8,000.0,028.7,021.9,14.8,0000.0,0009.54,0004.55,0003.97
2023-12-31 16:44:00,SystemResetWarning,0831.1,5.00,000.00,020.5,019.8,000.0,028.7,021.9,14.9,0000.0,0009.55,0004.55,0003.99
2023-12-31 16:45:00,SystemResetWarning,0831.1,4.99,000.00,020.5,019.8,000.0,028.7,021.9,14.8,0000.0,0010.08,0004.54,0003.99
2023-12-31 16:46:00,SystemResetWarning,0831.1,5.00,000.00,020.5,019.9,000.0,028.8,021.9,14.8,0000.0,0010.14,0004.53,0004.00
2023-12-31 16:47:00,SystemResetWarning,0831.2,5.00,000.00,020.5,019.9,000.0,028.8,021.9,14.7,0000.0,0010.37,0004.58,0004.01
2023-12-31 16:48:00,SystemResetWarning,0831.2,5.00,000.00,020.5,019.9,000.0,028.8,021.9,14.7,0000.0,0010.69,0004.61,0004.01
2023-12-31 16:49:00,SystemResetWarning,0831.2,5.00,000.00,020.5,019.9,000.0,028.8,021.9,14.6,0000.0,0010.31,0004.58,0004.01
2023-12-31 16:50:00,SystemResetWarning,0831.2,5.00,000.00,020.5,019.9,000.0,028.8,022.0,14.8,0000.0,0009.79,0004.55,0004.01
2023-12-31 16:51:00,SystemResetWarning,0831.2,5.00,000.00,020.5,019.9,000.0,028.8,022.0,14.9,0000.0,0010.22,0004.55,0004.02
2023-12-31 16:52:00,SystemResetWarning,0831.2,5.00,000.00,020.6,019.9,000.0,028.8,022.0,14.9,0000.0,0010.22,0004.57,0004.03
2023-12-31 16:53:00,SystemResetWarning,0831.2,5.00,000.00,020.6,019.9,000.0,028.8,022.0,14.9,0000.0,0010.06,0004.58,0004.03
2023-12-31 16:54:00,SystemResetWarning,0831.2,5.00,000.00,020.6,019.9,000.0,028.8,022.0,14.8,0000.0,0009.95,0004.58,0004.02
2023-12-31 16:55:00,SystemResetWarning,0831.2,5.00,000.00,020.6,019.9,000.0,028.8,022.0,14.8,0000.0,0010.01,0004.58,0004.02
2023-12-31 16:56:00,SystemResetWarning,0831.2,5.00,000.00,020.6,020.0,000.0,028.8,022.1,14.8,0000.0,0009.50,0004.54,0004.01
2023-12-31 16:57:00,SystemResetWarning,0831.2,5.00,000.00,020.6,020.0,000.0,028.9,022.1,15.0,0000.0,0009.80,0004.54,0004.01
2023-12-31 16:58:00,SystemResetWarning,0831.2,4.99,000.00,020.6,020.0,000.0,028.9,022.1,14.9,0000.0,0009.92,0004.53,0004.00
2023-12-31 16:59:00,SystemResetWarning,0831.2,5.00,000.00,020.6,020.0,000.0,028.9,022.1,14.9,0000.0,0009.78,0004.51,0003.99
